TimePDT,TemperatureF,Dew PointF,Humidity,Sea Level PressureIn,VisibilityMPH,Wind Direction,Wind SpeedMPH,Gust SpeedMPH,PrecipitationIn,Events,Conditions,WindDirDegrees,DateUTC
12:53 AM,44.1,34.0,68,29.94,10.0,Calm,Calm,-,N/A,,Partly Cloudy,0,2013-05-24 07:53:00
1:53 AM,42.1,34.0,73,29.95,10.0,Calm,Calm,-,N/A,,Partly Cloudy,0,2013-05-24 08:53:00
2:53 AM,42.1,34.0,73,29.94,10.0,Calm,Calm,-,N/A,,Partly Cloudy,0,2013-05-24 09:53:00
3:53 AM,41.0,35.1,79,29.94,10.0,ENE,5.8,-,N/A,,Scattered Clouds,60,2013-05-24 10:53:00
4:53 AM,37.9,35.1,89,29.94,10.0,NE,4.6,-,N/A,,Partly Cloudy,40,2013-05-24 11:53:00
5:53 AM,39.9,35.1,83,29.95,10.0,Calm,Calm,-,N/A,,Mostly Cloudy,0,2013-05-24 12:53:00
6:53 AM,42.1,36.0,79,29.96,10.0,SE,4.6,-,N/A,,Mostly Cloudy,130,2013-05-24 13:53:00
7:53 AM,45.0,37.0,74,29.96,10.0,SSW,11.5,-,N/A,,Mostly Cloudy,210,2013-05-24 14:53:00
8:08 AM,44.6,37.4,76,29.96,10.0,SSW,15.0,-,N/A,,Mostly Cloudy,210,2013-05-24 15:08:00
8:18 AM,44.6,37.4,76,29.97,10.0,South,11.5,-,N/A,,Mostly Cloudy,190,2013-05-24 15:18:00
8:39 AM,42.8,39.2,87,29.97,10.0,South,11.5,-,N/A,,Overcast,190,2013-05-24 15:39:00
8:53 AM,43.0,39.0,86,29.99,10.0,SSW,10.4,-,N/A,,Overcast,200,2013-05-24 15:53:00
9:53 AM,43.0,39.9,89,29.99,10.0,SW,11.5,-,N/A,,Overcast,230,2013-05-24 16:53:00
10:20 AM,44.6,39.2,81,29.97,10.0,SSW,11.5,-,N/A,,Overcast,210,2013-05-24 17:20:00
10:53 AM,46.0,39.0,76,29.99,10.0,SW,11.5,-,N/A,,Overcast,220,2013-05-24 17:53:00
11:53 AM,46.9,37.9,71,30.01,10.0,SSW,10.4,-,N/A,,Overcast,210,2013-05-24 18:53:00
12:53 PM,46.9,42.1,83,30.00,10.0,SW,12.7,-,0.00,Rain,Light Rain,220,2013-05-24 19:53:00
1:12 PM,46.4,39.2,76,29.97,10.0,SSW,13.8,-,0.00,,Mostly Cloudy,200,2013-05-24 20:12:00
1:53 PM,48.9,37.0,64,29.99,10.0,SSW,13.8,-,0.00,,Mostly Cloudy,210,2013-05-24 20:53:00
2:53 PM,51.1,37.0,59,29.99,10.0,WSW,15.0,21.9,N/A,,Mostly Cloudy,240,2013-05-24 21:53:00
3:53 PM,52.0,36.0,54,29.99,10.0,WSW,13.8,-,N/A,,Mostly Cloudy,240,2013-05-24 22:53:00
4:53 PM,52.0,37.0,57,30.01,10.0,SW,13.8,-,N/A,,Mostly Cloudy,230,2013-05-24 23:53:00
5:53 PM,48.9,39.9,71,30.01,10.0,South,5.8,-,0.00,,Mostly Cloudy,180,2013-05-25 00:53:00
6:53 PM,50.0,39.9,68,30.01,10.0,West,9.2,-,0.00,,Mostly Cloudy,260,2013-05-25 01:53:00
7:53 PM,48.9,41.0,74,30.01,10.0,SSE,3.5,-,N/A,,Mostly Cloudy,150,2013-05-25 02:53:00
8:53 PM,48.0,39.9,74,30.01,10.0,SSE,4.6,-,N/A,,Scattered Clouds,150,2013-05-25 03:53:00
9:53 PM,46.0,41.0,83,30.03,10.0,SSE,6.9,-,N/A,,Mostly Cloudy,160,2013-05-25 04:53:00
10:53 PM,45.0,39.9,82,30.02,10.0,South,4.6,-,N/A,,Mostly Cloudy,170,2013-05-25 05:53:00
11:53 PM,45.0,39.9,82,30.01,10.0,SE,4.6,-,N/A,,Mostly Cloudy,140,2013-05-25 06:53:00